owner,sensor,date,latitude,longitude,vertical_datum,sea_water_temperature,qcFlag 
DISL,ioos:station:DISL:DISL:1,2019-04-01T00:30:00Z,30.2513,-88.0778,-1.72,16.44,11111222 
DISL,ioos:station:DISL:DISL:1,2019-04-01T01:30:00Z,30.2513,-88.0778,-1.72,16.22,11111222 
DISL,ioos:station:DISL:DISL:1,2019-04-01T02:30:00Z,30.2513,-88.0778,-1.72,16.04,11111222 
DISL,ioos:station:DISL:DISL:1,2019-04-01T03:30:00Z,30.2513,-88.0778,-1.72,15.79,11111222 
DISL,ioos:station:DISL:DISL:1,2019-04-01T05:00:00Z,30.2513,-88.0778,-1.72,15.76,11111222 
DISL,ioos:station:DISL:DISL:1,2019-04-01T06:00:00Z,30.2513,-88.0778,-1.72,15.73,11111222 
DISL,ioos:station:DISL:DISL:1,2019-04-01T07:00:00Z,30.2513,-88.0778,-1.72,16.23,11111222 
DISL,ioos:station:DISL:DISL:1,2019-04-01T08:00:00Z,30.2513,-88.0778,-1.72,16.53,11111222 
DISL,ioos:station:DISL:DISL:1,2019-04-01T09:00:00Z,30.2513,-88.0778,-1.72,16.51,11111222 
DISL,ioos:station:DISL:DISL:1,2019-04-01T10:00:00Z,30.2513,-88.0778,-1.72,16.5,11111222 
DISL,ioos:station:DISL:DISL:1,2019-04-01T11:00:00Z,30.2513,-88.0778,-1.72,16.45,11111222 
DISL,ioos:station:DISL:DISL:1,2019-04-01T12:00:00Z,30.2513,-88.0778,-1.72,16.38,11111222 
DISL,ioos:station:DISL:DISL:1,2019-04-01T13:00:00Z,30.2513,-88.0778,-1.72,16.14,11111222 
DISL,ioos:station:DISL:DISL:1,2019-04-01T14:00:00Z,30.2513,-88.0778,-1.72,16.0,11111222 
DISL,ioos:station:DISL:DISL:1,2019-04-01T15:00:00Z,30.2513,-88.0778,-1.72,16.13,11111222 
DISL,ioos:station:DISL:DISL:1,2019-04-01T16:00:00Z,30.2513,-88.0778,-1.72,16.65,11111222 
DISL,ioos:station:DISL:DISL:1,2019-04-01T17:00:00Z,30.2513,-88.0778,-1.72,16.73,11111222 
DISL,ioos:station:DISL:DISL:1,2019-04-01T18:00:00Z,30.2513,-88.0778,-1.72,16.81,11111222 
DISL,ioos:station:DISL:DISL:1,2019-04-01T19:00:00Z,30.2513,-88.0778,-1.72,17.08,11111222 
DISL,ioos:station:DISL:DISL:1,2019-04-01T20:00:00Z,30.2513,-88.0778,-1.72,17.57,11111222 
DISL,ioos:station:DISL:DISL:1,2019-04-01T21:00:00Z,30.2513,-88.0778,-1.72,18.04,11111222 
DISL,ioos:station:DISL:DISL:1,2019-04-01T22:00:00Z,30.2513,-88.0778,-1.72,18.38,11111222 
DISL,ioos:station:DISL:DISL:1,2019-04-01T23:00:00Z,30.2513,-88.0778,-1.72,18.39,11111222 
DISL,ioos:station:DISL:DISL:1,2019-04-01T23:30:00Z,30.2513,-88.0778,-1.72,18.41,11111222 
DISL,ioos:station:DISL:DISL:1,2019-04-02T00:30:00Z,30.2513,-88.0778,-1.72,18.29,11111222 
DISL,ioos:station:DISL:DISL:1,2019-04-02T01:30:00Z,30.2513,-88.0778,-1.72,17.46,11111222 
DISL,ioos:station:DISL:DISL:1,2019-04-02T02:30:00Z,30.2513,-88.0778,-1.72,16.94,11111222 
DISL,ioos:station:DISL:DISL:1,2019-04-02T03:30:00Z,30.2513,-88.0778,-1.72,16.79,11111222 
DISL,ioos:station:DISL:DISL:1,2019-04-02T05:00:00Z,30.2513,-88.0778,-1.72,16.35,11111222 
DISL,ioos:station:DISL:DISL:1,2019-04-02T06:00:00Z,30.2513,-88.0778,-1.72,16.25,11111222 
DISL,ioos:station:DISL:DISL:1,2019-04-02T07:00:00Z,30.2513,-88.0778,-1.72,16.22,11111222 
DISL,ioos:station:DISL:DISL:1,2019-04-02T08:00:00Z,30.2513,-88.0778,-1.72,16.5,11111222 
DISL,ioos:station:DISL:DISL:1,2019-04-02T09:00:00Z,30.2513,-88.0778,-1.72,16.22,11111222 
DISL,ioos:station:DISL:DISL:1,2019-04-02T10:00:00Z,30.2513,-88.0778,-1.72,15.99,11111222 
DISL,ioos:station:DISL:DISL:1,2019-04-02T11:00:00Z,30.2513,-88.0778,-1.72,15.74,11111222 
DISL,ioos:station:DISL:DISL:1,2019-04-02T12:00:00Z,30.2513,-88.0778,-1.72,15.64,11111222 
DISL,ioos:station:DISL:DISL:1,2019-04-02T13:00:00Z,30.2513,-88.0778,-1.72,15.76,11111222 
DISL,ioos:station:DISL:DISL:1,2019-04-02T14:00:00Z,30.2513,-88.0778,-1.72,15.83,11111222 
DISL,ioos:station:DISL:DISL:1,2019-04-02T15:00:00Z,30.2513,-88.0778,-1.72,16.42,11111222 
DISL,ioos:station:DISL:DISL:1,2019-04-02T16:00:00Z,30.2513,-88.0778,-1.72,17.16,11111222 
DISL,ioos:station:DISL:DISL:1,2019-04-02T17:00:00Z,30.2513,-88.0778,-1.72,17.17,11111222 
DISL,ioos:station:DISL:DISL:1,2019-04-02T18:00:00Z,30.2513,-88.0778,-1.72,17.13,11111222 
DISL,ioos:station:DISL:DISL:1,2019-04-02T19:00:00Z,30.2513,-88.0778,-1.72,17.29,11111222 
DISL,ioos:station:DISL:DISL:1,2019-04-02T20:00:00Z,30.2513,-88.0778,-1.72,17.46,11111222 
DISL,ioos:station:DISL:DISL:1,2019-04-02T21:00:00Z,30.2513,-88.0778,-1.72,17.78,11111222 
DISL,ioos:station:DISL:DISL:1,2019-04-02T22:00:00Z,30.2513,-88.0778,-1.72,18.0,11111222 
DISL,ioos:station:DISL:DISL:1,2019-04-02T23:00:00Z,30.2513,-88.0778,-1.72,18.22,11111222 
DISL,ioos:station:DISL:DISL:1,2019-04-02T23:30:00Z,30.2513,-88.0778,-1.72,18.28,11111222 
DISL,ioos:station:DISL:DISL:1,2019-04-03T00:30:00Z,30.2513,-88.0778,-1.72,18.37,11111222 
DISL,ioos:station:DISL:DISL:1,2019-04-03T01:30:00Z,30.2513,-88.0778,-1.72,18.28,11111222 
DISL,ioos:station:DISL:DISL:1,2019-04-03T02:30:00Z,30.2513,-88.0778,-1.72,17.79,11111222 
DISL,ioos:station:DISL:DISL:1,2019-04-03T03:30:00Z,30.2513,-88.0778,-1.72,17.53,11111222 
DISL,ioos:station:DISL:DISL:1,2019-04-03T05:00:00Z,30.2513,-88.0778,-1.72,17.3,11111222 
DISL,ioos:station:DISL:DISL:1,2019-04-03T05:30:00Z,30.2513,-88.0778,-1.72,17.24,11111222 
DISL,ioos:station:DISL:DISL:1,2019-04-03T06:30:00Z,30.2513,-88.0778,-1.72,17.16,11111222 
DISL,ioos:station:DISL:DISL:1,2019-04-03T07:30:00Z,30.2513,-88.0778,-1.72,16.93,11111222 
DISL,ioos:station:DISL:DISL:1,2019-04-03T09:00:00Z,30.2513,-88.0778,-1.72,16.33,11111222 
DISL,ioos:station:DISL:DISL:1,2019-04-03T10:00:00Z,30.2513,-88.0778,-1.72,16.48,11111222 
DISL,ioos:station:DISL:DISL:1,2019-04-03T11:00:00Z,30.2513,-88.0778,-1.72,16.42,11111222 
DISL,ioos:station:DISL:DISL:1,2019-04-03T12:00:00Z,30.2513,-88.0778,-1.72,16.32,11111222 
DISL,ioos:station:DISL:DISL:1,2019-04-03T13:00:00Z,30.2513,-88.0778,-1.72,16.29,11111222 
DISL,ioos:station:DISL:DISL:1,2019-04-03T14:00:00Z,30.2513,-88.0778,-1.72,16.48,11111222 
DISL,ioos:station:DISL:DISL:1,2019-04-03T15:00:00Z,30.2513,-88.0778,-1.72,16.54,11111222 
DISL,ioos:station:DISL:DISL:1,2019-04-03T16:00:00Z,30.2513,-88.0778,-1.72,16.8,11111222 
DISL,ioos:station:DISL:DISL:1,2019-04-03T17:00:00Z,30.2513,-88.0778,-1.72,17.16,11111222 
DISL,ioos:station:DISL:DISL:1,2019-04-03T18:00:00Z,30.2513,-88.0778,-1.72,17.47,11111222 
DISL,ioos:station:DISL:DISL:1,2019-04-03T19:00:00Z,30.2513,-88.0778,-1.72,17.53,11111222 
DISL,ioos:station:DISL:DISL:1,2019-04-03T20:00:00Z,30.2513,-88.0778,-1.72,17.99,11111222 
DISL,ioos:station:DISL:DISL:1,2019-04-03T21:00:00Z,30.2513,-88.0778,-1.72,18.49,11111222 
DISL,ioos:station:DISL:DISL:1,2019-04-03T22:00:00Z,30.2513,-88.0778,-1.72,18.41,11111222 
DISL,ioos:station:DISL:DISL:1,2019-04-03T23:00:00Z,30.2513,-88.0778,-1.72,18.53,11111222 
DISL,ioos:station:DISL:DISL:1,2019-04-03T23:30:00Z,30.2513,-88.0778,-1.72,18.47,11111222 
DISL,ioos:station:DISL:DISL:1,2019-04-04T00:30:00Z,30.2513,-88.0778,-1.72,18.51,11111222 
DISL,ioos:station:DISL:DISL:1,2019-04-04T01:30:00Z,30.2513,-88.0778,-1.72,18.46,11111222 
DISL,ioos:station:DISL:DISL:1,2019-04-04T02:30:00Z,30.2513,-88.0778,-1.72,18.42,11111222 
DISL,ioos:station:DISL:DISL:1,2019-04-04T03:30:00Z,30.2513,-88.0778,-1.72,18.43,11111222 
DISL,ioos:station:DISL:DISL:1,2019-04-04T04:30:00Z,30.2513,-88.0778,-1.72,18.46,11111222 
DISL,ioos:station:DISL:DISL:1,2019-04-04T05:30:00Z,30.2513,-88.0778,-1.72,18.49,11111222 
DISL,ioos:station:DISL:DISL:1,2019-04-04T06:30:00Z,30.2513,-88.0778,-1.72,18.48,11111222 
DISL,ioos:station:DISL:DISL:1,2019-04-04T07:30:00Z,30.2513,-88.0778,-1.72,18.26,11111222 
DISL,ioos:station:DISL:DISL:1,2019-04-04T08:30:00Z,30.2513,-88.0778,-1.72,18.17,11111222 
DISL,ioos:station:DISL:DISL:1,2019-04-04T09:30:00Z,30.2513,-88.0778,-1.72,18.1,11111222 
DISL,ioos:station:DISL:DISL:1,2019-04-04T10:30:00Z,30.2513,-88.0778,-1.72,18.21,11111222 
DISL,ioos:station:DISL:DISL:1,2019-04-04T11:30:00Z,30.2513,-88.0778,-1.72,17.69,11111222 
DISL,ioos:station:DISL:DISL:1,2019-04-04T12:30:00Z,30.2513,-88.0778,-1.72,17.76,11111222 
DISL,ioos:station:DISL:DISL:1,2019-04-04T14:00:00Z,30.2513,-88.0778,-1.72,17.9,11111222 
DISL,ioos:station:DISL:DISL:1,2019-04-04T15:00:00Z,30.2513,-88.0778,-1.72,18.11,11111222 
DISL,ioos:station:DISL:DISL:1,2019-04-04T15:30:00Z,30.2513,-88.0778,-1.72,18.09,11111222 
DISL,ioos:station:DISL:DISL:1,2019-04-04T17:00:00Z,30.2513,-88.0778,-1.72,17.82,11111222 
DISL,ioos:station:DISL:DISL:1,2019-04-04T18:00:00Z,30.2513,-88.0778,-1.72,17.84,11111222 
DISL,ioos:station:DISL:DISL:1,2019-04-04T19:00:00Z,30.2513,-88.0778,-1.72,17.81,11111222 
DISL,ioos:station:DISL:DISL:1,2019-04-04T20:00:00Z,30.2513,-88.0778,-1.72,17.79,11111222 
DISL,ioos:station:DISL:DISL:1,2019-04-04T21:00:00Z,30.2513,-88.0778,-1.72,17.58,11111222 
DISL,ioos:station:DISL:DISL:1,2019-04-04T22:00:00Z,30.2513,-88.0778,-1.72,17.68,11111222 
DISL,ioos:station:DISL:DISL:1,2019-04-04T23:00:00Z,30.2513,-88.0778,-1.72,17.74,11111222 
DISL,ioos:station:DISL:DISL:1,2019-04-04T23:30:00Z,30.2513,-88.0778,-1.72,17.74,11111222 
DISL,ioos:station:DISL:DISL:1,2019-04-05T00:30:00Z,30.2513,-88.0778,-1.72,17.72,11111222 
DISL,ioos:station:DISL:DISL:1,2019-04-05T01:30:00Z,30.2513,-88.0778,-1.72,18.11,11111222 
DISL,ioos:station:DISL:DISL:1,2019-04-05T02:30:00Z,30.2513,-88.0778,-1.72,18.04,11111222 
DISL,ioos:station:DISL:DISL:1,2019-04-05T03:30:00Z,30.2513,-88.0778,-1.72,17.72,11111222 
DISL,ioos:station:DISL:DISL:1,2019-04-05T04:30:00Z,30.2513,-88.0778,-1.72,17.62,11111222 
DISL,ioos:station:DISL:DISL:1,2019-04-05T05:30:00Z,30.2513,-88.0778,-1.72,17.59,11111222 
DISL,ioos:station:DISL:DISL:1,2019-04-05T06:30:00Z,30.2513,-88.0778,-1.72,18.43,11111222 
DISL,ioos:station:DISL:DISL:1,2019-04-05T07:30:00Z,30.2513,-88.0778,-1.72,17.75,11111222 
DISL,ioos:station:DISL:DISL:1,2019-04-05T08:30:00Z,30.2513,-88.0778,-1.72,18.01,11111222 
DISL,ioos:station:DISL:DISL:1,2019-04-05T09:30:00Z,30.2513,-88.0778,-1.72,17.93,11111222 
DISL,ioos:station:DISL:DISL:1,2019-04-05T10:30:00Z,30.2513,-88.0778,-1.72,17.83,11111222 
DISL,ioos:station:DISL:DISL:1,2019-04-05T11:30:00Z,30.2513,-88.0778,-1.72,17.75,11111222 
DISL,ioos:station:DISL:DISL:1,2019-04-05T12:30:00Z,30.2513,-88.0778,-1.72,17.68,11111222 
DISL,ioos:station:DISL:DISL:1,2019-04-05T14:00:00Z,30.2513,-88.0778,-1.72,18.05,11111222 
DISL,ioos:station:DISL:DISL:1,2019-04-05T15:00:00Z,30.2513,-88.0778,-1.72,18.16,11111222 
DISL,ioos:station:DISL:DISL:1,2019-04-05T16:00:00Z,30.2513,-88.0778,-1.72,18.0,11111222 
DISL,ioos:station:DISL:DISL:1,2019-04-05T17:00:00Z,30.2513,-88.0778,-1.72,18.02,11111222 
DISL,ioos:station:DISL:DISL:1,2019-04-05T18:00:00Z,30.2513,-88.0778,-1.72,17.93,11111222 
DISL,ioos:station:DISL:DISL:1,2019-04-05T19:00:00Z,30.2513,-88.0778,-1.72,18.03,11111222 
DISL,ioos:station:DISL:DISL:1,2019-04-05T20:00:00Z,30.2513,-88.0778,-1.72,18.07,11111222 
DISL,ioos:station:DISL:DISL:1,2019-04-05T21:00:00Z,30.2513,-88.0778,-1.72,18.14,11111222 
DISL,ioos:station:DISL:DISL:1,2019-04-05T22:00:00Z,30.2513,-88.0778,-1.72,18.15,11111222 
DISL,ioos:station:DISL:DISL:1,2019-04-05T23:00:00Z,30.2513,-88.0778,-1.72,18.13,11111222 
DISL,ioos:station:DISL:DISL:1,2019-04-05T23:30:00Z,30.2513,-88.0778,-1.72,18.11,11111222 
DISL,ioos:station:DISL:DISL:1,2019-04-06T00:30:00Z,30.2513,-88.0778,-1.72,17.98,11111222 
DISL,ioos:station:DISL:DISL:1,2019-04-06T01:30:00Z,30.2513,-88.0778,-1.72,18.1,11111222 
DISL,ioos:station:DISL:DISL:1,2019-04-06T02:30:00Z,30.2513,-88.0778,-1.72,18.16,11111222 
DISL,ioos:station:DISL:DISL:1,2019-04-06T03:30:00Z,30.2513,-88.0778,-1.72,18.23,11111222 
DISL,ioos:station:DISL:DISL:1,2019-04-06T04:30:00Z,30.2513,-88.0778,-1.72,18.24,11111222 
DISL,ioos:station:DISL:DISL:1,2019-04-06T05:30:00Z,30.2513,-88.0778,-1.72,18.3,11111222 
DISL,ioos:station:DISL:DISL:1,2019-04-06T06:30:00Z,30.2513,-88.0778,-1.72,18.42,11111222 
DISL,ioos:station:DISL:DISL:1,2019-04-06T07:30:00Z,30.2513,-88.0778,-1.72,18.43,11111222 
DISL,ioos:station:DISL:DISL:1,2019-04-06T08:30:00Z,30.2513,-88.0778,-1.72,18.2,11111222 
DISL,ioos:station:DISL:DISL:1,2019-04-06T09:30:00Z,30.2513,-88.0778,-1.72,18.18,11111222 
DISL,ioos:station:DISL:DISL:1,2019-04-06T10:30:00Z,30.2513,-88.0778,-1.72,18.17,11111222 
DISL,ioos:station:DISL:DISL:1,2019-04-06T11:30:00Z,30.2513,-88.0778,-1.72,18.08,11111222 
DISL,ioos:station:DISL:DISL:1,2019-04-06T12:30:00Z,30.2513,-88.0778,-1.72,18.08,11111222 
DISL,ioos:station:DISL:DISL:1,2019-04-06T13:30:00Z,30.2513,-88.0778,-1.72,18.09,11111222 
DISL,ioos:station:DISL:DISL:1,2019-04-06T14:30:00Z,30.2513,-88.0778,-1.72,18.14,11111222 
DISL,ioos:station:DISL:DISL:1,2019-04-06T15:30:00Z,30.2513,-88.0778,-1.72,18.31,11111222 
DISL,ioos:station:DISL:DISL:1,2019-04-06T17:00:00Z,30.2513,-88.0778,-1.72,18.49,11111222 
DISL,ioos:station:DISL:DISL:1,2019-04-06T17:30:00Z,30.2513,-88.0778,-1.72,18.94,11111222 
DISL,ioos:station:DISL:DISL:1,2019-04-06T19:00:00Z,30.2513,-88.0778,-1.72,19.23,11111222 
DISL,ioos:station:DISL:DISL:1,2019-04-06T20:00:00Z,30.2513,-88.0778,-1.72,19.59,11111222 
DISL,ioos:station:DISL:DISL:1,2019-04-06T21:00:00Z,30.2513,-88.0778,-1.72,19.99,11111222 
DISL,ioos:station:DISL:DISL:1,2019-04-06T22:00:00Z,30.2513,-88.0778,-1.72,19.68,11111222 
DISL,ioos:station:DISL:DISL:1,2019-04-06T23:00:00Z,30.2513,-88.0778,-1.72,19.57,11111222 
DISL,ioos:station:DISL:DISL:1,2019-04-06T23:30:00Z,30.2513,-88.0778,-1.72,19.41,11111222 
DISL,ioos:station:DISL:DISL:1,2019-04-07T00:30:00Z,30.2513,-88.0778,-1.72,19.14,11111222 
DISL,ioos:station:DISL:DISL:1,2019-04-07T01:30:00Z,30.2513,-88.0778,-1.72,19.07,11111222 
DISL,ioos:station:DISL:DISL:1,2019-04-07T02:30:00Z,30.2513,-88.0778,-1.72,19.14,11111222 
DISL,ioos:station:DISL:DISL:1,2019-04-07T03:30:00Z,30.2513,-88.0778,-1.72,18.96,11111222 
DISL,ioos:station:DISL:DISL:1,2019-04-07T04:30:00Z,30.2513,-88.0778,-1.72,19.05,11111222 
DISL,ioos:station:DISL:DISL:1,2019-04-07T05:30:00Z,30.2513,-88.0778,-1.72,19.2,11111222 
DISL,ioos:station:DISL:DISL:1,2019-04-07T06:30:00Z,30.2513,-88.0778,-1.72,19.13,11111222 
DISL,ioos:station:DISL:DISL:1,2019-04-07T07:30:00Z,30.2513,-88.0778,-1.72,19.05,11111222 
DISL,ioos:station:DISL:DISL:1,2019-04-07T08:30:00Z,30.2513,-88.0778,-1.72,19.05,11111222 
DISL,ioos:station:DISL:DISL:1,2019-04-07T09:30:00Z,30.2513,-88.0778,-1.72,19.01,11111222 
DISL,ioos:station:DISL:DISL:1,2019-04-07T11:00:00Z,30.2513,-88.0778,-1.72,19.02,11111222 
DISL,ioos:station:DISL:DISL:1,2019-04-07T11:30:00Z,30.2513,-88.0778,-1.72,19.02,11111222 
DISL,ioos:station:DISL:DISL:1,2019-04-07T12:30:00Z,30.2513,-88.0778,-1.72,19.01,11111222 
DISL,ioos:station:DISL:DISL:1,2019-04-07T13:30:00Z,30.2513,-88.0778,-1.72,19.02,11111222 
DISL,ioos:station:DISL:DISL:1,2019-04-07T14:30:00Z,30.2513,-88.0778,-1.72,19.05,11111222 
DISL,ioos:station:DISL:DISL:1,2019-04-07T15:30:00Z,30.2513,-88.0778,-1.72,19.03,11111222 
DISL,ioos:station:DISL:DISL:1,2019-04-07T16:30:00Z,30.2513,-88.0778,-1.72,19.08,11111222 
DISL,ioos:station:DISL:DISL:1,2019-04-07T17:30:00Z,30.2513,-88.0778,-1.72,19.53,11111222 
DISL,ioos:station:DISL:DISL:1,2019-04-07T18:30:00Z,30.2513,-88.0778,-1.72,20.02,11111222 
DISL,ioos:station:DISL:DISL:1,2019-04-07T20:00:00Z,30.2513,-88.0778,-1.72,20.03,11111222 
DISL,ioos:station:DISL:DISL:1,2019-04-07T21:00:00Z,30.2513,-88.0778,-1.72,20.3,11111222 
DISL,ioos:station:DISL:DISL:1,2019-04-07T21:30:00Z,30.2513,-88.0778,-1.72,20.38,11111222 
DISL,ioos:station:DISL:DISL:1,2019-04-07T23:00:00Z,30.2513,-88.0778,-1.72,20.13,11111222 
DISL,ioos:station:DISL:DISL:1,2019-04-07T23:30:00Z,30.2513,-88.0778,-1.72,20.13,11111222 
DISL,ioos:station:DISL:DISL:1,2019-04-08T00:30:00Z,30.2513,-88.0778,-1.72,20.51,11111222 
DISL,ioos:station:DISL:DISL:1,2019-04-08T01:30:00Z,30.2513,-88.0778,-1.72,20.22,11111222 
DISL,ioos:station:DISL:DISL:1,2019-04-08T02:30:00Z,30.2513,-88.0778,-1.72,20.03,11111222 
DISL,ioos:station:DISL:DISL:1,2019-04-08T03:30:00Z,30.2513,-88.0778,-1.72,20.03,11111222 
DISL,ioos:station:DISL:DISL:1,2019-04-08T04:30:00Z,30.2513,-88.0778,-1.72,20.09,11111222 
DISL,ioos:station:DISL:DISL:1,2019-04-08T05:30:00Z,30.2513,-88.0778,-1.72,20.08,11111222 
DISL,ioos:station:DISL:DISL:1,2019-04-08T06:30:00Z,30.2513,-88.0778,-1.72,20.02,11111222 
DISL,ioos:station:DISL:DISL:1,2019-04-08T07:30:00Z,30.2513,-88.0778,-1.72,20.0,11111222 
DISL,ioos:station:DISL:DISL:1,2019-04-08T08:30:00Z,30.2513,-88.0778,-1.72,20.03,11111222 
DISL,ioos:station:DISL:DISL:1,2019-04-08T09:30:00Z,30.2513,-88.0778,-1.72,20.06,11111222 
DISL,ioos:station:DISL:DISL:1,2019-04-08T10:30:00Z,30.2513,-88.0778,-1.72,20.02,11111222 
DISL,ioos:station:DISL:DISL:1,2019-04-08T11:30:00Z,30.2513,-88.0778,-1.72,19.98,11111222 
DISL,ioos:station:DISL:DISL:1,2019-04-08T12:30:00Z,30.2513,-88.0778,-1.72,19.94,11111222 
DISL,ioos:station:DISL:DISL:1,2019-04-08T13:30:00Z,30.2513,-88.0778,-1.72,19.79,11111222 
DISL,ioos:station:DISL:DISL:1,2019-04-08T14:30:00Z,30.2513,-88.0778,-1.72,19.86,11111222 
DISL,ioos:station:DISL:DISL:1,2019-04-08T15:30:00Z,30.2513,-88.0778,-1.72,19.87,11111222 
DISL,ioos:station:DISL:DISL:1,2019-04-08T16:30:00Z,30.2513,-88.0778,-1.72,19.92,11111222 
DISL,ioos:station:DISL:DISL:1,2019-04-08T18:00:00Z,30.2513,-88.0778,-1.72,20.24,11111222 
DISL,ioos:station:DISL:DISL:1,2019-04-08T19:00:00Z,30.2513,-88.0778,-1.72,20.16,11111222 
DISL,ioos:station:DISL:DISL:1,2019-04-08T20:00:00Z,30.2513,-88.0778,-1.72,20.31,11111222 
DISL,ioos:station:DISL:DISL:1,2019-04-08T21:00:00Z,30.2513,-88.0778,-1.72,20.55,11111222 
DISL,ioos:station:DISL:DISL:1,2019-04-08T22:00:00Z,30.2513,-88.0778,-1.72,20.79,11111222 
DISL,ioos:station:DISL:DISL:1,2019-04-08T23:00:00Z,30.2513,-88.0778,-1.72,20.68,11111222 
DISL,ioos:station:DISL:DISL:1,2019-04-08T23:30:00Z,30.2513,-88.0778,-1.72,20.6,11111222 
DISL,ioos:station:DISL:DISL:1,2019-04-09T01:00:00Z,30.2513,-88.0778,-1.72,20.41,11111222 
DISL,ioos:station:DISL:DISL:1,2019-04-09T01:30:00Z,30.2513,-88.0778,-1.72,20.35,11111222 
DISL,ioos:station:DISL:DISL:1,2019-04-09T02:30:00Z,30.2513,-88.0778,-1.72,20.37,11111222 
DISL,ioos:station:DISL:DISL:1,2019-04-09T03:30:00Z,30.2513,-88.0778,-1.72,20.25,11111222 
DISL,ioos:station:DISL:DISL:1,2019-04-09T05:00:00Z,30.2513,-88.0778,-1.72,20.1,11111222 
DISL,ioos:station:DISL:DISL:1,2019-04-09T05:30:00Z,30.2513,-88.0778,-1.72,20.08,11111222 
DISL,ioos:station:DISL:DISL:1,2019-04-09T06:30:00Z,30.2513,-88.0778,-1.72,20.08,11111222 
DISL,ioos:station:DISL:DISL:1,2019-04-09T07:30:00Z,30.2513,-88.0778,-1.72,20.19,11111222 
DISL,ioos:station:DISL:DISL:1,2019-04-09T08:30:00Z,30.2513,-88.0778,-1.72,20.06,11111222 
DISL,ioos:station:DISL:DISL:1,2019-04-09T10:00:00Z,30.2513,-88.0778,-1.72,20.09,11111222 
DISL,ioos:station:DISL:DISL:1,2019-04-09T11:00:00Z,30.2513,-88.0778,-1.72,20.08,11111222 
DISL,ioos:station:DISL:DISL:1,2019-04-09T12:00:00Z,30.2513,-88.0778,-1.72,20.06,11111222 
DISL,ioos:station:DISL:DISL:1,2019-04-09T13:00:00Z,30.2513,-88.0778,-1.72,20.07,11111222 
DISL,ioos:station:DISL:DISL:1,2019-04-09T14:00:00Z,30.2513,-88.0778,-1.72,20.1,11111222 
DISL,ioos:station:DISL:DISL:1,2019-04-09T15:00:00Z,30.2513,-88.0778,-1.72,20.22,11111222 
DISL,ioos:station:DISL:DISL:1,2019-04-09T16:00:00Z,30.2513,-88.0778,-1.72,20.35,11111222 
DISL,ioos:station:DISL:DISL:1,2019-04-09T17:00:00Z,30.2513,-88.0778,-1.72,20.56,11111222 
DISL,ioos:station:DISL:DISL:1,2019-04-09T18:00:00Z,30.2513,-88.0778,-1.72,20.76,11111222 
DISL,ioos:station:DISL:DISL:1,2019-04-09T19:00:00Z,30.2513,-88.0778,-1.72,21.0,11111222 
DISL,ioos:station:DISL:DISL:1,2019-04-09T20:00:00Z,30.2513,-88.0778,-1.72,21.19,11111222 
DISL,ioos:station:DISL:DISL:1,2019-04-09T21:00:00Z,30.2513,-88.0778,-1.72,21.4,11111222 
DISL,ioos:station:DISL:DISL:1,2019-04-09T22:00:00Z,30.2513,-88.0778,-1.72,21.44,11111222 
DISL,ioos:station:DISL:DISL:1,2019-04-09T23:00:00Z,30.2513,-88.0778,-1.72,21.48,11111222 
DISL,ioos:station:DISL:DISL:1,2019-04-09T23:30:00Z,30.2513,-88.0778,-1.72,21.49,11111222 
DISL,ioos:station:DISL:DISL:1,2019-04-10T00:30:00Z,30.2513,-88.0778,-1.72,21.17,11111222 
DISL,ioos:station:DISL:DISL:1,2019-04-10T01:30:00Z,30.2513,-88.0778,-1.72,21.1,11111222 
DISL,ioos:station:DISL:DISL:1,2019-04-10T02:30:00Z,30.2513,-88.0778,-1.72,21.05,11111222 
DISL,ioos:station:DISL:DISL:1,2019-04-10T03:30:00Z,30.2513,-88.0778,-1.72,20.95,11111222 
DISL,ioos:station:DISL:DISL:1,2019-04-10T05:00:00Z,30.2513,-88.0778,-1.72,20.93,11111222 
DISL,ioos:station:DISL:DISL:1,2019-04-10T06:00:00Z,30.2513,-88.0778,-1.72,20.87,11111222 
DISL,ioos:station:DISL:DISL:1,2019-04-10T07:00:00Z,30.2513,-88.0778,-1.72,20.81,11111222 
DISL,ioos:station:DISL:DISL:1,2019-04-10T08:00:00Z,30.2513,-88.0778,-1.72,20.69,11111222 
DISL,ioos:station:DISL:DISL:1,2019-04-10T09:00:00Z,30.2513,-88.0778,-1.72,20.69,11111222 
DISL,ioos:station:DISL:DISL:1,2019-04-10T10:00:00Z,30.2513,-88.0778,-1.72,20.63,11111222 
DISL,ioos:station:DISL:DISL:1,2019-04-10T11:00:00Z,30.2513,-88.0778,-1.72,20.57,11111222 
DISL,ioos:station:DISL:DISL:1,2019-04-10T12:00:00Z,30.2513,-88.0778,-1.72,20.47,11111222 
DISL,ioos:station:DISL:DISL:1,2019-04-10T13:00:00Z,30.2513,-88.0778,-1.72,20.34,11111222 
DISL,ioos:station:DISL:DISL:1,2019-04-10T14:00:00Z,30.2513,-88.0778,-1.72,20.42,11111222 
DISL,ioos:station:DISL:DISL:1,2019-04-10T15:00:00Z,30.2513,-88.0778,-1.72,20.5,11111222 
DISL,ioos:station:DISL:DISL:1,2019-04-10T16:00:00Z,30.2513,-88.0778,-1.72,20.11,11111222 
DISL,ioos:station:DISL:DISL:1,2019-04-10T17:00:00Z,30.2513,-88.0778,-1.72,20.21,11111222 
DISL,ioos:station:DISL:DISL:1,2019-04-10T18:00:00Z,30.2513,-88.0778,-1.72,21.07,11111222 
DISL,ioos:station:DISL:DISL:1,2019-04-10T19:00:00Z,30.2513,-88.0778,-1.72,22.09,11111222 
DISL,ioos:station:DISL:DISL:1,2019-04-10T20:00:00Z,30.2513,-88.0778,-1.72,22.61,11111222 
DISL,ioos:station:DISL:DISL:1,2019-04-10T21:00:00Z,30.2513,-88.0778,-1.72,22.94,11111222 
DISL,ioos:station:DISL:DISL:1,2019-04-10T22:00:00Z,30.2513,-88.0778,-1.72,23.26,11111222 
DISL,ioos:station:DISL:DISL:1,2019-04-10T23:00:00Z,30.2513,-88.0778,-1.72,23.54,11111222 
DISL,ioos:station:DISL:DISL:1,2019-04-10T23:30:00Z,30.2513,-88.0778,-1.72,23.5,11111222 
DISL,ioos:station:DISL:DISL:1,2019-04-11T00:30:00Z,30.2513,-88.0778,-1.72,23.5,11111222 
DISL,ioos:station:DISL:DISL:1,2019-04-11T02:00:00Z,30.2513,-88.0778,-1.72,21.41,11111222 
DISL,ioos:station:DISL:DISL:1,2019-04-11T03:00:00Z,30.2513,-88.0778,-1.72,21.12,11111222 
DISL,ioos:station:DISL:DISL:1,2019-04-11T04:00:00Z,30.2513,-88.0778,-1.72,21.66,11111222 
DISL,ioos:station:DISL:DISL:1,2019-04-11T05:00:00Z,30.2513,-88.0778,-1.72,22.09,11111222 
DISL,ioos:station:DISL:DISL:1,2019-04-11T06:00:00Z,30.2513,-88.0778,-1.72,22.04,11111222 
DISL,ioos:station:DISL:DISL:1,2019-04-11T07:00:00Z,30.2513,-88.0778,-1.72,22.04,11111222 
DISL,ioos:station:DISL:DISL:1,2019-04-11T08:00:00Z,30.2513,-88.0778,-1.72,21.96,11111222 
DISL,ioos:station:DISL:DISL:1,2019-04-11T09:00:00Z,30.2513,-88.0778,-1.72,21.87,11111222 
DISL,ioos:station:DISL:DISL:1,2019-04-11T10:00:00Z,30.2513,-88.0778,-1.72,21.9,11111222 
DISL,ioos:station:DISL:DISL:1,2019-04-11T11:00:00Z,30.2513,-88.0778,-1.72,21.82,11111222 
DISL,ioos:station:DISL:DISL:1,2019-04-11T12:00:00Z,30.2513,-88.0778,-1.72,21.79,11111222 
DISL,ioos:station:DISL:DISL:1,2019-04-11T13:00:00Z,30.2513,-88.0778,-1.72,21.35,11111222 
DISL,ioos:station:DISL:DISL:1,2019-04-11T14:00:00Z,30.2513,-88.0778,-1.72,21.44,11111222 
DISL,ioos:station:DISL:DISL:1,2019-04-11T15:00:00Z,30.2513,-88.0778,-1.72,21.51,11111222 
DISL,ioos:station:DISL:DISL:1,2019-04-11T16:00:00Z,30.2513,-88.0778,-1.72,21.57,11111222 
DISL,ioos:station:DISL:DISL:1,2019-04-11T17:00:00Z,30.2513,-88.0778,-1.72,21.61,11111222 
DISL,ioos:station:DISL:DISL:1,2019-04-11T18:00:00Z,30.2513,-88.0778,-1.72,21.45,11111222 
DISL,ioos:station:DISL:DISL:1,2019-04-11T19:00:00Z,30.2513,-88.0778,-1.72,21.34,11111222 
DISL,ioos:station:DISL:DISL:1,2019-04-11T20:00:00Z,30.2513,-88.0778,-1.72,22.14,11111222 
DISL,ioos:station:DISL:DISL:1,2019-04-11T21:00:00Z,30.2513,-88.0778,-1.72,23.87,11111222 
DISL,ioos:station:DISL:DISL:1,2019-04-11T22:00:00Z,30.2513,-88.0778,-1.72,23.99,11111222 
DISL,ioos:station:DISL:DISL:1,2019-04-11T23:00:00Z,30.2513,-88.0778,-1.72,23.34,11111222 
DISL,ioos:station:DISL:DISL:1,2019-04-11T23:30:00Z,30.2513,-88.0778,-1.72,23.08,11111222 
DISL,ioos:station:DISL:DISL:1,2019-04-12T00:30:00Z,30.2513,-88.0778,-1.72,22.72,11111222 
DISL,ioos:station:DISL:DISL:1,2019-04-12T01:30:00Z,30.2513,-88.0778,-1.72,22.66,11111222 